Hourly Weather Roundup
Issued by NWS Central Illinois

Home | Current Version | Previous Version | Text Only | Print | Product List | Glossary On
Versions: 1 2 3 4 5 6 7 8 9 10 11 12 13 14 15 16 17 18 19 20 21 22 23 24 25 26 27 28 29 30 31 32 33 34 35 36 37 38 39 40 41 42 43 44 45 46 47 48 49 50
000
NZUS43 KILX 180610
HWRILX

AREA WEATHER ROUNDUP
NATIONAL WEATHER SERVICE, LINCOLN IL
100 AM CDT SAT APR 18 2015


CITY           SKY/WX    TMP DP  RH WIND       PRES   REMARKS
BLOOMINGTON    FAIR      60  53  77 S6        30.05S
6HR MIN TEMP:  60; 6HR MAX TEMP:  76;

CHAMPAIGN      FAIR      59  48  67 S5        30.05R
6HR MIN TEMP:  57; 6HR MAX TEMP:  74;

DECATUR        FAIR      57  51  80 SE3       30.04S
6HR MIN TEMP:  55; 6HR MAX TEMP:  73;

EFFINGHAM      FAIR      55  51  88 CALM      30.05S
FLORA          FAIR      56  55  94 CALM      30.04S
6HR MIN TEMP:  56; 6HR MAX TEMP:  73;

GALESBURG      MOCLDY    58  51  78 CALM      30.01S
JACKSONVILLE   FAIR      62  54  77 S3        30.02S
6HR MIN TEMP:  61; 6HR MAX TEMP:  77;

LACON          CLOUDY    64  53  67 S3        30.01S
6HR MIN TEMP:  59; 6HR MAX TEMP:  73;

LAWRENCEVILLE  FAIR      58  55  90 CALM      30.04S
6HR MIN TEMP:  57; 6HR MAX TEMP:  74;

LITCHFIELD     FAIR      60  53  77 SE5       30.03S
$$


CITY           SKY/WX    TMP DP  RH WIND       PRES   REMARKS
LINCOLN        FAIR      59  51  74 CALM      30.02R
6HR MIN TEMP:  58; 6HR MAX TEMP:  77;

MACOMB         FAIR      56  49  76 CALM      30.04R
MATTOON        FAIR      58  54  86 CALM      30.04R
6HR MIN TEMP:  57; 6HR MAX TEMP:  73;

MT CARMEL AP   FAIR      59  55  88 CALM      30.04S
OLNEY-NOBLE AP FAIR      55  54  94 CALM      30.04S
PARIS          FAIR      55  52  90 CALM      30.06S
6HR MIN TEMP:  55; 6HR MAX TEMP:  73;

PEORIA         FAIR      67  52  58 S5        30.02R
6HR MIN TEMP:  66; 6HR MAX TEMP:  79;

PONTIAC        MOCLDY    60  51  72 S5        30.04S
RANTOUL        CLOUDY    60  52  74 CALM      30.05R
6HR MIN TEMP:  59; 6HR MAX TEMP:  76;

ROBINSON       FAIR      55  52  91 CALM      30.06S
6HR MIN TEMP:  54; 6HR MAX TEMP:  75;

SPRINGFIELD    FAIR      60  52  74 CALM      30.03R
6HR MIN TEMP:  59; 6HR MAX TEMP:  77;

TAYLORVILLE    FAIR      59  54  82 SE3       30.03S
$$

...REGIONAL REPORTS...


CITY           SKY/WX    TMP DP  RH WIND       PRES   REMARKS
CHICAGO O`HARE MOCLDY    61  46  57 CALM      30.00S
KANKAKEE       FAIR      56  49  76 SW7       30.04R
MOLINE         FAIR      54  47  77 CALM      30.00S
MOUNT VERNON     N/A     52  46  82 CALM      30.04F VSB 3/4
PITTSFIELD     FAIR      62  54  76 CALM      30.03R
QUINCY         FAIR      64  52  64 S6        30.01S
ROCKFORD       FAIR      58  49  72 CALM      30.04R
$$


CITY           SKY/WX    TMP DP  RH WIND       PRES   REMARKS
BURLINGTON     FAIR      57  52  83 CALM      30.01R
CEDAR RAPIDS   FAIR      58  50  75 NW7       30.01R
DES MOINES     CLOUDY    68  52  56 E5        30.00F
KIRKSVILLE     FAIR      64  55  72 SE6       30.01F
OTTUMWA        FAIR      58  49  72 E3        30.01R
ST LOUIS       FAIR      66  55  67 S3        30.03R
$$


CITY           SKY/WX    TMP DP  RH WIND       PRES   REMARKS
TERRE HAUTE    FAIR      55  49  80 CALM      30.05S
EVANSVILLE     FAIR      60  57  89 CALM      30.04F FOG
INDIANAPOLIS   FAIR      56  46  69 W5        30.04
LAFAYETTE      FAIR      53  47  79 CALM      30.04R
MADISON        FAIR      54  45  71 CALM      30.01R
MILWAUKEE      FAIR      54  42  64 S3        30.01R
$$





USA.gov is the U.S. government's official web portal to all federal, state and local government web resources and services.